EW1687 Weather Reports


time (UTC)temp
C
wind
direction
speed
KPH
gust
KPH
rain 1hr
cm
rain 24hr
cm
rain mn
cm
humidity
%
barometer
mb
20260510033552 11 0 0.0 0.0 0.00 0.23 0.23 90 1011.2
20260510033057 11 0 0.0 0.0 0.00 0.23 0.23 90 1011.1
20260510032552 11 0 0.0 0.0 0.00 0.23 0.23 90 1011.2
20260510032055 11 0 0.0 0.0 0.00 0.23 0.23 90 1011.2
20260510031559 11 0 0.0 0.0 0.00 0.23 0.23 89 1011.2
20260510031052 11 0 0.0 0.0 0.00 0.23 0.23 89 1011.2
20260510030552 11 0 0.0 0.0 0.00 0.23 0.23 89 1011.2
20260510030056 11 0 0.0 0.0 0.00 0.23 0.23 88 1011.2
20260510025552 11 0 0.0 0.0 0.00 0.23 0.23 88 1011.3
20260510025052 12 0 0.0 0.0 0.00 0.23 0.23 88 1011.3
20260510024558 12 0 0.0 0.0 0.00 0.23 0.23 88 1011.1
20260510024051 12 0 0.0 0.0 0.00 0.23 0.23 88 1011.0
20260510023551 12 0 0.0 0.0 0.00 0.23 0.23 88 1011.1
20260510023052 12 0 0.0 0.0 0.00 0.23 0.23 88 1011.1
20260510022555 12 0 0.0 0.0 0.00 0.23 0.23 88 1010.9
20260510022051 12 0 0.0 0.0 0.00 0.23 0.23 87 1010.8
20260510021555 12 0 0.0 0.0 0.00 0.23 0.23 87 1010.9
20260510021054 12 0 0.0 0.0 0.00 0.23 0.23 86 1010.9
20260510020551 12 0 0.0 0.0 0.00 0.23 0.23 86 1010.8
20260510020056 12 0 0.0 0.0 0.00 0.23 0.23 86 1010.8
20260510015552 13 0 0.0 0.0 0.00 0.23 0.23 86 1010.8
20260510015054 13 0 0.0 0.0 0.00 0.23 0.23 85 1010.7
20260510014557 13 0 0.0 0.0 0.00 0.23 0.23 85 1010.6
20260510014052 13 0 0.0 0.0 0.00 0.23 0.23 85 1010.7
20260510013552 13 0 0.0 0.0 0.00 0.23 0.23 84 1010.6
20260510013108 13 0 0.0 0.0 0.00 0.23 0.23 84 1010.5
20260510012552 13 0 0.0 0.0 0.00 0.23 0.23 83 1010.6
20260510012052 13 0 0.0 0.0 0.00 0.23 0.23 83 1010.3
20260510011555 13 0 0.0 0.0 0.00 0.23 0.23 82 1010.4
20260510011055 13 0 0.0 0.0 0.00 0.23 0.23 82 1010.3
20260510010551 14 0 0.0 0.0 0.00 0.23 0.23 82 1010.1
20260510010112 14 0 0.0 0.0 0.00 0.23 0.23 81 1010.2
20260510005552 14 0 0.0 0.0 0.00 0.23 0.23 80 1010.1
20260510005051 15 0 0.0 0.0 0.00 0.23 0.23 79 1010.1
20260510004600 15 0 0.0 0.0 0.00 0.23 0.23 78 1010.0
20260510004051 15 0 0.0 0.0 0.00 0.23 0.23 78 1009.9
20260510003551 15 0 0.0 0.0 0.00 0.23 0.23 77 1009.9
20260510003055 15 0 0.0 0.0 0.00 0.23 0.23 76 1009.9
20260510002558 15 0 0.0 0.0 0.00 0.23 0.23 76 1009.8
20260510002052 15 0 0.0 0.0 0.00 0.23 0.23 76 1009.7
20260510001600 15 0 0.0 0.0 0.00 0.23 0.23 76 1009.7
20260510001052 16 0 0.0 0.0 0.00 0.23 0.23 75 1009.7
20260510000552 16 0 0.0 0.0 0.00 0.23 0.23 75 1009.6
20260510000132 16 0 0.0 0.0 0.00 0.23 0.23 75 1009.5
20260509235552 16 0 0.0 0.0 0.00 0.23 0.23 75 1009.5
20260509235052 16 0 0.0 0.0 0.00 0.23 0.23 74 1009.5
20260509234604 16 0 0.0 0.0 0.00 0.23 0.23 73 1009.4
20260509234056 16 0 0.0 0.0 0.00 0.23 0.23 72 1009.5
20260509233552 16 0 0.0 0.0 0.00 0.23 0.23 72 1009.4
20260509233054 16 0 0.0 0.0 0.00 0.23 0.23 72 1009.4
20260509232551 16 0 0.0 0.0 0.00 0.23 0.23 71 1009.4
20260509232053 16 0 0.0 0.0 0.00 0.23 0.23 71 1009.3
20260509231559 16 0 0.0 0.0 0.00 0.23 0.23 71 1009.4
20260509231100 17 0 0.0 0.0 0.00 0.23 0.23 71 1009.3
20260509230551 17 0 0.0 0.0 0.00 0.23 0.23 70 1009.4
20260509230053 17 0 0.0 0.0 0.00 0.23 0.23 70 1009.3
20260509225553 17 0 0.0 0.0 0.00 0.23 0.23 69 1009.4
20260509225052 17 0 0.0 0.0 0.00 0.23 0.23 68 1009.6
20260509224554 17 0 0.0 0.0 0.00 0.23 0.23 69 1009.6
20260509224055 17 0 0.0 0.0 0.00 0.23 0.23 68 1009.7
20260509223552 17 0 0.0 0.0 0.00 0.23 0.23 69 1009.6
20260509223053 17 0 0.0 3.2 0.00 0.23 0.23 70 1009.6
20260509222552 17 0 0.0 8.0 0.00 0.23 0.23 71 1009.5
20260509222052 17 0 0.0 8.0 0.00 0.23 0.23 69 1009.7
20260509221606 17 0 0.0 4.8 0.00 0.23 0.23 69 1009.6
20260509221052 17 0 0.0 4.8 0.00 0.23 0.23 67 1009.5
20260509220553 17 0 0.0 4.8 0.00 0.23 0.23 65 1009.6
20260509220105 17 0 0.0 4.8 0.00 0.23 0.23 66 1009.6
20260509215552 17 0 0.0 4.8 0.00 0.23 0.23 67 1009.6
20260509215052 17 0 0.0 6.4 0.00 0.23 0.23 67 1009.7
20260509214556 17 82 1.6 6.4 0.00 0.23 0.23 68 1009.7
20260509214055 17 0 0.0 4.8 0.00 0.23 0.23 67 1009.6
20260509213551 17 0 0.0 4.8 0.00 0.23 0.23 68 1009.9
20260509213055 17 0 0.0 0.0 0.00 0.23 0.23 68 1009.9
20260509212552 17 0 0.0 0.0 0.00 0.23 0.23 66 1009.9
20260509212055 17 0 0.0 0.0 0.00 0.23 0.23 67 1010.0
20260509211551 17 0 0.0 0.0 0.00 0.23 0.23 62 1010.2
20260509211055 17 0 0.0 0.0 0.00 0.23 0.23 63 1010.2
20260509210553 17 0 0.0 0.0 0.00 0.23 0.23 64 1010.2
20260509210059 17 0 0.0 0.0 0.00 0.23 0.23 66 1010.3
20260509205552 17 0 0.0 6.4 0.00 0.23 0.23 68 1010.3
20260509205052 17 0 0.0 6.4 0.00 0.23 0.23 66 1010.3
20260509204559 17 283 1.6 6.4 0.00 0.23 0.23 65 1010.5
20260509204052 17 283 3.2 4.8 0.00 0.23 0.23 66 1010.2
20260509203551 16 344 0.0 4.8 0.00 0.23 0.23 67 1010.2
20260509203055 16 344 1.6 4.8 0.00 0.23 0.23 68 1010.0
20260509202554 16 0 0.0 3.2 0.00 0.23 0.23 69 1010.0
20260509202055 16 342 0.0 3.2 0.00 0.23 0.23 68 1010.0
20260509201553 17 0 0.0 0.0 0.00 0.23 0.23 68 1010.0
20260509201052 17 0 0.0 0.0 0.00 0.23 0.23 68 1010.1
20260509200551 17 0 0.0 0.0 0.00 0.23 0.23 67 1010.2
20260509195551 17 0 0.0 1.6 0.00 0.23 0.23 68 1010.2
20260509195052 17 0 0.0 6.4 0.00 0.23 0.23 69 1010.3
20260509194555 17 0 0.0 6.4 0.00 0.23 0.23 65 1010.3
20260509194052 17 291 1.6 6.4 0.00 0.23 0.23 65 1010.3
20260509193556 17 201 0.0 4.8 0.00 0.23 0.23 68 1010.5
20260509193114 17 0 0.0 3.2 0.00 0.23 0.23 67 1010.5
20260509192552 17 0 0.0 6.4 0.00 0.23 0.23 68 1010.6
20260509192055 17 0 1.6 6.4 0.00 0.23 0.23 71 1010.7
20260509191612 17 0 0.0 6.4 0.00 0.23 0.23 70 1010.9
20260509191051 16 0 0.0 9.7 0.00 0.23 0.23 69 1011.0
20260509190551 16 0 0.0 9.7 0.00 0.23 0.23 70 1010.8
20260509190110 16 163 0.0 8.0 0.00 0.23 0.23 71 1010.8
20260509185552 16 0 3.2 11.3 0.00 0.23 0.23 70 1010.9
20260509185051 16 0 1.6 11.3 0.00 0.23 0.23 73 1011.1
20260509184554 16 165 0.0 12.9 0.00 0.23 0.23 74 1011.2
20260509184051 16 0 1.6 14.5 0.00 0.23 0.23 73 1011.1
20260509183551 16 207 4.8 14.5 0.00 0.23 0.23 76 1011.3
20260509183102 16 0 8.0 14.5 0.00 0.23 0.23 77 1011.2
20260509182551 15 155 4.8 17.7 0.00 0.23 0.23 79 1011.4
20260509182051 15 129 1.6 17.7 0.00 0.23 0.23 79 1011.3
20260509181556 15 123 6.4 16.1 0.00 0.23 0.23 79 1011.4
20260509181053 15 136 6.4 16.1 0.00 0.23 0.23 80 1011.7
20260509180551 15 118 4.8 14.5 0.00 0.23 0.23 82 1011.5
20260509180054 14 115 3.2 11.3 0.00 0.23 0.23 83 1011.6
20260509175553 14 136 3.2 8.0 0.00 0.23 0.23 81 1011.8
20260509175053 13 0 0.0 8.0 0.00 0.23 0.23 82 1011.7
20260509174553 13 134 0.0 8.0 0.00 0.23 0.23 82 1012.0
20260509174053 13 130 1.6 8.0 0.00 0.23 0.23 83 1011.9
20260509173553 13 0 3.2 8.0 0.00 0.23 0.23 83 1012.2
20260509173058 13 126 0.0 4.8 0.00 0.23 0.23 83 1011.7
20260509172554 13 126 0.0 4.8 0.00 0.23 0.23 83 1011.8
20260509172052 13 0 1.6 4.8 0.00 0.23 0.23 84 1011.9
20260509171608 13 126 0.0 4.8 0.00 0.23 0.23 83 1012.1
20260509171051 13 0 1.6 4.8 0.00 0.23 0.23 83 1012.0
20260509170551 13 0 0.0 1.6 0.00 0.23 0.23 83 1012.0
20260509170055 13 0 0.0 3.2 0.00 0.23 0.23 83 1011.9
20260509165551 13 0 0.0 9.7 0.00 0.23 0.23 83 1011.8
20260509165051 13 0 1.6 11.3 0.00 0.23 0.23 84 1011.8
20260509164556 13 126 4.8 11.3 0.00 0.23 0.23 85 1012.0
20260509164053 13 134 3.2 11.3 0.03 0.23 0.23 85 1012.1
20260509163554 13 122 4.8 16.1 0.03 0.23 0.23 85 1012.2
20260509163059 13 122 4.8 16.1 0.03 0.23 0.23 86 1012.3
20260509162556 13 169 4.8 14.5 0.03 0.23 0.23 85 1012.4
20260509162051 13 147 4.8 14.5 0.03 0.23 0.23 85 1012.4
20260509161557 13 130 4.8 14.5 0.03 0.23 0.23 85 1012.5
20260509161052 13 148 6.4 14.5 0.03 0.23 0.23 86 1012.4
20260509160553 13 142 0.0 4.8 0.05 0.23 0.23 88 1012.4
20260509160054 13 0 0.0 4.8 0.08 0.23 0.23 88 1012.5
20260509155552 12 100 0.0 4.8 0.13 0.23 0.23 88 1012.3
20260509155054 12 0 0.0 0.0 0.15 0.23 0.23 89 1012.3
20260509154558 12 0 0.0 4.8 0.18 0.20 0.20 89 1012.2
20260509154053 12 0 0.0 4.8 0.18 0.20 0.20 89 1012.1
20260509153551 12 329 0.0 4.8 0.18 0.20 0.20 89 1011.9
20260509153058 12 0 0.0 0.0 0.20 0.20 0.20 89 1012.0
20260509152551 12 0 0.0 0.0 0.20 0.20 0.20 88 1012.2
20260509152051 12 0 0.0 0.0 0.20 0.20 0.20 87 1012.2
20260509151605 12 0 0.0 0.0 0.20 0.20 0.20 85 1012.3
20260509151051 12 0 0.0 0.0 0.20 0.20 0.20 85 1012.3
20260509150551 12 0 0.0 0.0 0.18 0.18 0.18 84 1012.5
20260509150056 13 0 0.0 0.0 0.15 0.15 0.15 84 1012.8
20260509145551 13 0 0.0 0.0 0.10 0.10 0.10 83 1012.6
20260509145051 13 0 0.0 0.0 0.05 0.05 0.05 82 1012.6
20260509144557 13 0 0.0 0.0 0.03 0.03 0.03 80 1012.7
20260509144051 13 0 0.0 0.0 0.03 0.03 0.03 79 1012.6
20260509143553 13 0 0.0 0.0 0.03 0.03 0.03 79 1012.6
20260509143057 13 0 0.0 0.0 0.00 0.00 0.00 79 1012.7
20260509142550 13 0 0.0 0.0 0.00 0.00 0.00 78 1012.7
20260509142051 13 0 0.0 3.2 0.00 0.00 0.00 77 1012.7
20260509141558 13 0 0.0 4.8 0.00 0.00 0.00 76 1012.7
20260509141052 13 0 0.0 6.4 0.00 0.00 0.00 76 1012.8
20260509140553 13 244 1.6 6.4 0.00 0.00 0.00 73 1012.6
20260509140104 13 0 0.0 6.4 0.00 0.00 0.00 70 1012.5
20260509135551 14 0 0.0 6.4 0.00 0.00 0.00 72 1012.4
20260509135052 14 246 3.2 6.4 0.00 0.00 0.00 72 1012.1
20260509134606 13 0 0.0 3.2 0.00 0.00 0.00 71 1012.1
20260509134051 13 0 0.0 0.0 0.00 0.00 0.00 72 1012.1
20260509133551 13 0 0.0 6.4 0.00 0.00 0.00 73 1012.2
20260509133052 13 0 0.0 6.4 0.00 0.00 0.00 74 1012.3
20260509132551 13 221 1.6 6.4 0.00 0.00 0.00 76 1012.3
20260509132054 13 0 0.0 0.0 0.00 0.00 0.00 75 1012.2
20260509131633 12 0 0.0 0.0 0.00 0.00 0.00 77 1012.2
20260509131051 12 0 0.0 0.0 0.00 0.00 0.00 75 1012.2
20260509130553 12 0 0.0 0.0 0.00 0.00 0.00 76 1012.0
20260509130131 12 0 0.0 4.8 0.00 0.00 0.00 76 1011.9
20260509125551 12 0 0.0 4.8 0.00 0.00 0.00 75 1011.8
20260509125056 12 211 0.0 4.8 0.00 0.00 0.00 75 1012.1
20260509124554 12 0 0.0 0.0 0.00 0.00 0.00 76 1011.8
20260509124051 12 0 0.0 0.0 0.00 0.00 0.00 77 1011.9
20260509123551 12 0 0.0 0.0 0.00 0.00 0.00 78 1012.0
20260509123103 12 0 0.0 0.0 0.00 0.00 0.00 81 1011.9
20260509122552 12 0 0.0 0.0 0.00 0.00 0.00 81 1011.9
20260509122051 12 0 0.0 0.0 0.00 0.00 0.00 82 1011.8
20260509121557 12 0 0.0 0.0 0.00 0.00 0.00 83 1012.0
20260509121053 12 0 0.0 0.0 0.00 0.00 0.00 83 1012.0
20260509120554 12 0 0.0 0.0 0.00 0.00 0.00 83 1011.9
20260509120110 11 0 0.0 0.0 0.00 0.00 0.00 83 1011.9
20260509115550 11 0 0.0 0.0 0.00 0.00 0.00 84 1011.7
20260509115051 11 0 0.0 0.0 0.00 0.00 0.00 85 1011.7
20260509114609 11 0 0.0 6.4 0.00 0.00 0.00 85 1011.7
20260509114051 11 0 1.6 6.4 0.00 0.00 0.00 85 1011.7
20260509113550 11 0 0.0 6.4 0.00 0.00 0.00 85 1011.5
20260509113055 11 0 3.2 6.4 0.00 0.00 0.00 85 1011.5
20260509112552 11 0 0.0 0.0 0.00 0.00 0.00 84 1011.5
20260509112053 11 0 0.0 0.0 0.00 0.00 0.00 84 1011.7
20260509111552 11 0 0.0 0.0 0.00 0.00 0.00 84 1011.5
20260509111053 11 0 0.0 0.0 0.00 0.00 0.00 84 1011.4
20260509110552 11 0 0.0 0.0 0.00 0.00 0.00 84 1011.4
20260509110105 11 0 0.0 0.0 0.00 0.00 0.00 84 1011.3
20260509105556 11 0 0.0 0.0 0.00 0.00 0.00 84 1011.4
20260509105053 11 0 0.0 0.0 0.00 0.00 0.00 84 1011.3
20260509104610 11 0 0.0 0.0 0.00 0.00 0.00 84 1011.1
20260509104052 11 0 0.0 0.0 0.00 0.00 0.00 84 1011.2
20260509103554 11 0 0.0 0.0 0.00 0.00 0.00 84 1011.2
20260509103051 11 0 0.0 0.0 0.00 0.00 0.00 83 1011.1
20260509102551 11 0 0.0 0.0 0.00 0.00 0.00 83 1011.1
20260509102052 11 0 0.0 0.0 0.00 0.00 0.00 83 1011.1
20260509101559 11 0 0.0 0.0 0.00 0.00 0.00 83 1011.0
20260509101055 11 0 0.0 0.0 0.00 0.00 0.00 82 1010.9
20260509100551 11 0 0.0 0.0 0.00 0.00 0.00 82 1010.9
20260509100058 11 0 0.0 0.0 0.00 0.00 0.00 82 1010.9
20260509095555 11 0 0.0 0.0 0.00 0.00 0.00 82 1011.0
20260509095052 11 0 0.0 0.0 0.00 0.00 0.00 82 1011.1
20260509094610 11 0 0.0 0.0 0.00 0.00 0.00 82 1011.0
20260509094056 11 0 0.0 0.0 0.00 0.00 0.00 81 1011.1
20260509093553 11 0 0.0 0.0 0.00 0.00 0.00 81 1011.2
20260509093102 11 0 0.0 0.0 0.00 0.00 0.00 81 1011.1
20260509092555 11 0 0.0 0.0 0.00 0.00 0.00 81 1011.0
20260509092054 11 0 0.0 0.0 0.00 0.00 0.00 81 1011.1
20260509091555 11 0 0.0 0.0 0.00 0.00 0.00 81 1011.1
20260509091056 11 0 0.0 0.0 0.00 0.00 0.00 81 1011.1
20260509090551 11 0 0.0 0.0 0.00 0.00 0.00 81 1011.2
20260509090107 11 0 0.0 0.0 0.00 0.00 0.00 82 1011.2
20260509085551 11 0 0.0 0.0 0.00 0.00 0.00 81 1011.3
20260509085050 11 0 0.0 0.0 0.00 0.00 0.00 82 1011.4
20260509084600 11 0 0.0 0.0 0.00 0.00 0.00 82 1011.4
20260509084051 11 0 0.0 0.0 0.00 0.00 0.00 82 1011.5
20260509083556 11 0 0.0 0.0 0.00 0.00 0.00 82 1011.2
20260509083057 11 0 0.0 0.0 0.00 0.00 0.00 82 1011.3
20260509082552 11 0 0.0 0.0 0.00 0.00 0.00 81 1011.3
20260509082051 11 0 0.0 0.0 0.00 0.00 0.00 81 1011.4
20260509081600 11 0 0.0 0.0 0.00 0.00 0.00 81 1011.4
20260509081051 11 0 0.0 0.0 0.00 0.00 0.00 81 1011.5
20260509080552 11 0 0.0 0.0 0.00 0.00 0.00 80 1011.5
20260509080057 11 0 0.0 0.0 0.00 0.00 0.00 80 1011.6
20260509075554 11 0 0.0 0.0 0.00 0.00 0.00 80 1011.7
20260509075054 11 0 0.0 0.0 0.00 0.00 0.00 80 1011.6
20260509074601 11 0 0.0 0.0 0.00 0.00 0.00 81 1011.7
20260509074052 11 0 0.0 0.0 0.00 0.00 0.00 81 1011.5
20260509073551 11 0 0.0 0.0 0.00 0.00 0.00 81 1011.6
20260509073058 11 0 0.0 0.0 0.00 0.00 0.00 81 1011.5
20260509072554 11 0 0.0 0.0 0.00 0.00 0.00 81 1011.6
20260509072053 11 0 0.0 0.0 0.00 0.00 0.00 80 1011.5
20260509071559 11 0 0.0 0.0 0.00 0.00 0.00 80 1011.6
20260509071052 11 0 0.0 0.0 0.00 0.00 0.00 79 1011.7
20260509070551 11 0 0.0 0.0 0.00 0.00 0.00 78 1011.6
20260509070105 11 0 0.0 0.0 0.00 0.00 0.00 78 1011.5
20260509065550 11 0 0.0 0.0 0.00 0.00 0.00 77 1011.6
20260509065050 11 0 0.0 0.0 0.00 0.00 0.00 77 1011.7
20260509064553 11 0 0.0 0.0 0.00 0.00 0.00 76 1011.7
20260509064051 11 0 0.0 0.0 0.00 0.00 0.00 76 1011.6
20260509063552 11 0 0.0 0.0 0.00 0.00 0.00 76 1011.7
20260509063050 11 0 0.0 0.0 0.00 0.00 0.00 76 1011.8
20260509062550 11 0 0.0 0.0 0.00 0.00 0.00 75 1011.8
20260509062051 11 0 0.0 0.0 0.00 0.00 0.00 75 1011.9
20260509061602 11 0 0.0 0.0 0.00 0.00 0.00 74 1011.8
20260509061051 11 0 0.0 0.0 0.00 0.00 0.00 74 1011.8
20260509060553 12 0 0.0 0.0 0.00 0.00 0.00 74 1011.8
20260509060057 12 0 0.0 0.0 0.00 0.00 0.00 74 1011.6
20260509055553 12 0 0.0 0.0 0.00 0.00 0.00 74 1011.5
20260509055053 12 0 0.0 0.0 0.00 0.00 0.00 74 1011.8
20260509054613 12 0 0.0 0.0 0.00 0.00 0.00 75 1011.8
20260509054052 12 0 0.0 0.0 0.00 0.00 0.00 75 1011.7
20260509053553 12 0 0.0 0.0 0.00 0.00 0.00 75 1011.9
20260509053141 12 0 0.0 0.0 0.00 0.00 0.00 75 1012.0
20260509052555 12 0 0.0 0.0 0.00 0.00 0.00 74 1012.1
20260509052053 12 0 0.0 0.0 0.00 0.00 0.00 74 1012.3
20260509051557 12 0 0.0 0.0 0.00 0.00 0.00 73 1012.5
20260509051050 12 0 0.0 0.0 0.00 0.00 0.00 73 1012.5
20260509050550 12 0 0.0 0.0 0.00 0.00 0.00 73 1012.5
20260509050056 12 0 0.0 0.0 0.00 0.00 0.00 72 1012.4
20260509045551 12 0 0.0 0.0 0.00 0.00 0.00 73 1012.5
20260509045051 12 0 0.0 0.0 0.00 0.00 0.00 73 1012.4
20260509044552 12 0 0.0 0.0 0.00 0.00 0.00 71 1012.5
20260509044051 12 0 0.0 0.0 0.00 0.00 0.00 71 1012.5
20260509043552 12 0 0.0 0.0 0.00 0.00 0.00 70 1012.5
20260509043058 12 0 0.0 0.0 0.00 0.00 0.00 70 1012.6
20260509042554 12 0 0.0 0.0 0.00 0.00 0.00 68 1012.5
20260509042051 12 0 0.0 0.0 0.00 0.00 0.00 68 1012.6
20260509041556 12 0 0.0 0.0 0.00 0.00 0.00 68 1012.5
20260509041051 12 0 0.0 0.0 0.00 0.00 0.00 68 1012.5
20260509040550 12 0 0.0 0.0 0.00 0.00 0.00 69 1012.5
20260509040116 12 0 0.0 0.0 0.00 0.00 0.00 69 1012.6
20260509035550 13 0 0.0 4.8 0.00 0.00 0.00 69 1012.7
20260509035056 13 0 0.0 4.8 0.00 0.00 0.00 70 1012.7
20260509034630 13 325 0.0 4.8 0.00 0.00 0.00 68 1012.7
20260509034050 13 0 0.0 4.8 0.00 0.00 0.00 68 1012.6